{"data":{"norad_id":48112,"epoch":"2026-09-19T18:56:38.012640Z","epoch_age_seconds":91248,"freshness":"FRESH","line1":"1 48112U 21027W   26262.78932885  .00001769  00000+0  68718-4 0  9992","line2":"2 48112  53.1613 344.4759 0001140  89.3899 270.7233 15.31714159302225","mean_motion":15.31714159,"eccentricity":0.000114,"inclination_deg":53.1613,"raan_deg":344.4759,"arg_perigee_deg":89.3899,"mean_anomaly_deg":270.7233,"bstar":6.8718e-5,"rev_number":30222,"period_min":94.012318913349,"perigee_km":469.91702114269,"apogee_km":471.47855547442,"semimajor_km":6848.8347883086,"source":"CELESTRAK","updated_at":"2026-09-20T09:00:38.763982Z"}}